Showing default

SPAINSAT NG1, 62852

Orbit data source: Space-Track

SPAINSAT NG1, 62852 is a payload satellite owned by Hisdesat (ES) in GEO that was launched on Thu, 30 Jan 2025 UTC via an FALCON 9 launch vehicle from the Air Force Eastern Test Range (AFETR). Payload-class satellites include a variety of spacecraft equipped with specific instruments for various scientific and technological missions. These include communications satellites like Starlink; space stations such as the ISS; scientific satellites like the Hubble; Earth observation satellites from companies like Planet Labs, Umbra, and HawkEye 360; GPS; miniature CubeSats for education and research; and military/defense satellites.

Not visible in the next 10 days
Identifier
62852, 2025-021A
Orbit
GEO
Country
Flag of ESES / SPN
Related business
Manufacturer
ADST/ADSUK
Mission
Operational Defense Communications
Bus & Motor
EUROSTAR NEO, PPS-5000
Mass
6,100 kg wet, ~5,500 kg dry
Launch date (UTC)
2025-01-30 (2 years ago)
Launch vehicle
FALCON 9
Launch site
Air Force Eastern Test Range (AFETR)
Object type
Payload
Rocket body
Debris
Shape & HBR
Box + 2 Pan, 21.4 m
Radar Cross Section
50.755 m², Large (>1 m²)

Expand to show TLE details & history
Last TLE update: 1 day ago

TLE from 1 day ago
0 SPAINSAT NG1
1 62852U 25021A   26266.68964225  .00000000  00000-0  00000-0 0  9997
2 62852   0.0202 170.7245 0000120 341.9089 127.1592  1.00269430  4974
Epoch: 2026-09-23T16:33Z
TLE epoch observation values (Epoch: 2026-09-23T16:33:05.090Z)
Latitude
0.04304°
Longitude
28.96803°
Altitude
35,787.045 km
Speed
3.075 km/s
True Right ascension
18h 39m 06s
True Declination
0° 02' 35"
Sunlit
Object was in daylight at epoch
Visualization orbit readout
Latitude
Unknown
Longitude
Unknown
Altitude
Unknown
Speed
Unknown
Apparent Right ascension
Unknown
Apparent Declination
Unknown
Sunlit
N/A
Visualization observer readout
Local Sidereal Time
14:21:40
Azimuth
Unknown
Elevation
Unknown
Doppler factor
Unknown
Orbital elements
Apogee altitude
35,788.832 km
Perigee altitude
35,787.82 km
Semi-major axis
42,166.463 km
Eccentricity
0.00001
Inclination
0.0202°
RAAN
170.7245°
Arg. of periapsis
341.9089°
True anomaly
127.1603°
Mean anomaly
127.1592°
Eccentric anomaly
127.15975°
Mean motion
0.25066 °/min
Orbital period
1,436.18 mins
BSTAR
0
Loading maneuver chart data...
Computing Atmospheric mass density...
Loading historical data...
Loading historical data...
Loading historical data...
Loading historical data...
Loading historical data...
Loading historical data...
Loading historical data...
Other satellites on launch #21 in the year 2025 (2025-01-30 UTC)

Documentation

Showing up to 5 results
|